TimeCDT,TemperatureF,Dew PointF,Humidity,Sea Level PressureIn,VisibilityMPH,Wind Direction,Wind SpeedMPH,Gust SpeedMPH,PrecipitationIn,Events,Conditions,WindDirDegrees,DateUTC
12:15 AM,70.3,54.5,57,29.98,10.0,South,15.0,-,N/A,,Clear,170,2011-10-08 05:15:00
12:35 AM,70.2,53.8,56,29.98,10.0,South,16.1,21.9,N/A,,Clear,180,2011-10-08 05:35:00
12:55 AM,70.2,53.1,55,29.99,10.0,South,19.6,26.5,N/A,,Clear,180,2011-10-08 05:55:00
1:15 AM,70.7,52.2,52,29.99,10.0,South,19.6,25.3,N/A,,Scattered Clouds,190,2011-10-08 06:15:00
1:35 AM,70.9,51.8,51,29.99,10.0,South,23.0,27.6,N/A,,Scattered Clouds,180,2011-10-08 06:35:00
1:55 AM,70.9,51.1,49,29.99,10.0,South,18.4,25.3,N/A,,Scattered Clouds,180,2011-10-08 06:55:00
2:15 AM,70.5,50.7,49,29.99,10.0,South,19.6,25.3,N/A,,Scattered Clouds,180,2011-10-08 07:15:00
2:35 AM,70.3,50.2,49,29.99,10.0,South,16.1,-,N/A,,Clear,180,2011-10-08 07:35:00
2:55 AM,69.8,50.0,49,29.99,10.0,South,16.1,-,N/A,,Clear,180,2011-10-08 07:55:00
3:35 AM,69.8,49.1,48,30.00,10.0,South,12.7,-,N/A,,Clear,190,2011-10-08 08:35:00
3:55 AM,69.4,48.4,47,30.00,10.0,South,13.8,-,N/A,,Clear,190,2011-10-08 08:55:00
4:15 AM,69.3,47.7,46,30.01,10.0,South,15.0,20.7,N/A,,Scattered Clouds,180,2011-10-08 09:15:00
4:35 AM,69.1,47.1,45,30.01,10.0,South,15.0,20.7,N/A,,Scattered Clouds,180,2011-10-08 09:35:00
4:55 AM,68.5,46.8,46,30.01,10.0,South,13.8,18.4,N/A,,Clear,180,2011-10-08 09:55:00
5:15 AM,68.4,46.8,46,30.01,10.0,South,17.3,24.2,N/A,,Clear,180,2011-10-08 10:15:00
5:35 AM,68.2,46.9,47,30.01,10.0,South,16.1,-,N/A,,Scattered Clouds,180,2011-10-08 10:35:00
5:55 AM,67.8,47.1,47,30.02,10.0,South,16.1,23.0,N/A,,Mostly Cloudy,170,2011-10-08 10:55:00
6:15 AM,67.3,47.3,49,30.02,10.0,South,12.7,18.4,N/A,,Mostly Cloudy,170,2011-10-08 11:15:00
6:35 AM,66.7,47.5,50,30.03,10.0,South,13.8,19.6,N/A,,Overcast,170,2011-10-08 11:35:00
6:55 AM,66.6,47.5,50,30.04,10.0,SSE,11.5,18.4,N/A,,Overcast,160,2011-10-08 11:55:00
7:15 AM,66.6,47.3,50,30.04,10.0,South,10.4,-,N/A,,Overcast,180,2011-10-08 12:15:00
7:35 AM,66.4,47.3,50,30.05,10.0,South,9.2,-,N/A,,Overcast,170,2011-10-08 12:35:00
8:15 AM,66.0,47.7,52,30.06,10.0,South,8.1,-,N/A,,Overcast,170,2011-10-08 13:15:00
8:35 AM,66.4,47.7,51,30.06,10.0,SSE,9.2,-,N/A,,Overcast,160,2011-10-08 13:35:00
8:55 AM,66.7,48.0,51,30.07,10.0,SSE,9.2,-,N/A,,Overcast,160,2011-10-08 13:55:00
9:15 AM,67.3,48.2,50,30.08,10.0,South,11.5,-,N/A,,Overcast,170,2011-10-08 14:15:00
9:55 AM,68.7,48.4,48,30.08,10.0,South,17.3,-,N/A,,Mostly Cloudy,180,2011-10-08 14:55:00
10:15 AM,69.6,48.6,47,30.08,10.0,South,17.3,24.2,N/A,,Mostly Cloudy,180,2011-10-08 15:15:00
10:35 AM,70.3,48.9,47,30.08,10.0,South,16.1,24.2,N/A,,Overcast,180,2011-10-08 15:35:00
10:55 AM,71.1,49.3,46,30.07,10.0,South,20.7,26.5,N/A,,Overcast,190,2011-10-08 15:55:00
11:15 AM,72.0,49.6,45,30.08,10.0,South,21.9,29.9,N/A,,Scattered Clouds,190,2011-10-08 16:15:00
11:35 AM,74.1,49.8,42,30.08,10.0,South,20.7,31.1,N/A,,Scattered Clouds,190,2011-10-08 16:35:00
11:55 AM,75.2,50.2,41,30.09,10.0,South,17.3,27.6,N/A,,Scattered Clouds,190,2011-10-08 16:55:00
12:15 PM,75.6,50.5,41,30.09,10.0,SSW,21.9,29.9,N/A,,Scattered Clouds,200,2011-10-08 17:15:00
12:35 PM,77.0,50.7,40,30.09,10.0,SSW,23.0,28.8,N/A,,Mostly Cloudy,200,2011-10-08 17:35:00
12:55 PM,76.3,51.3,41,30.09,10.0,SSW,20.7,28.8,N/A,,Mostly Cloudy,200,2011-10-08 17:55:00
1:35 PM,75.7,52.2,44,30.08,10.0,SSW,15.0,24.2,N/A,,Mostly Cloudy,210,2011-10-08 18:35:00
1:55 PM,77.9,51.8,40,30.07,10.0,SSW,16.1,26.5,N/A,,Scattered Clouds,200,2011-10-08 18:55:00
2:35 PM,78.1,52.3,41,30.07,10.0,SSW,13.8,21.9,N/A,,Scattered Clouds,200,2011-10-08 19:35:00
2:55 PM,77.5,52.3,41,30.07,10.0,South,18.4,-,N/A,,Scattered Clouds,180,2011-10-08 19:55:00
3:15 PM,77.2,52.5,42,30.07,10.0,South,20.7,27.6,N/A,,Scattered Clouds,180,2011-10-08 20:15:00
3:35 PM,77.2,52.9,43,30.07,10.0,SSW,18.4,24.2,N/A,,Mostly Cloudy,200,2011-10-08 20:35:00
3:55 PM,77.9,52.5,41,30.06,10.0,SSW,16.1,23.0,N/A,,Mostly Cloudy,200,2011-10-08 20:55:00
4:15 PM,77.2,52.9,43,30.07,10.0,South,18.4,24.2,N/A,,Overcast,190,2011-10-08 21:15:00
4:35 PM,76.3,52.9,44,30.07,10.0,South,15.0,-,N/A,,Overcast,190,2011-10-08 21:35:00
4:55 PM,77.0,52.9,43,30.07,10.0,South,18.4,-,N/A,,Overcast,180,2011-10-08 21:55:00
5:15 PM,76.6,52.9,43,30.07,10.0,South,17.3,-,N/A,,Overcast,180,2011-10-08 22:15:00
5:35 PM,76.3,53.1,44,30.07,10.0,South,17.3,-,N/A,,Overcast,190,2011-10-08 22:35:00
5:55 PM,76.3,53.1,44,30.07,10.0,South,15.0,-,N/A,,Overcast,180,2011-10-08 22:55:00
6:15 PM,76.1,53.1,45,30.08,10.0,South,15.0,19.6,N/A,,Overcast,180,2011-10-08 23:15:00
6:35 PM,75.6,53.4,46,30.08,10.0,South,12.7,-,N/A,,Mostly Cloudy,190,2011-10-08 23:35:00
6:55 PM,74.5,53.8,48,30.09,10.0,SSW,5.8,-,N/A,,Overcast,210,2011-10-08 23:55:00
7:35 PM,72.1,55.4,56,30.09,10.0,SSW,3.5,-,N/A,,Overcast,210,2011-10-09 00:35:00
7:55 PM,71.1,55.6,58,30.11,10.0,SSW,4.6,-,N/A,,Overcast,210,2011-10-09 00:55:00
8:15 PM,70.9,55.8,59,30.11,10.0,SSW,3.5,-,N/A,,Overcast,210,2011-10-09 01:15:00
8:35 PM,70.7,55.8,59,30.11,10.0,WSW,3.5,-,N/A,,Overcast,240,2011-10-09 01:35:00
8:55 PM,69.6,56.3,63,30.12,10.0,Calm,Calm,-,N/A,,Mostly Cloudy,0,2011-10-09 01:55:00
9:15 PM,68.0,56.3,66,30.12,10.0,Calm,Calm,-,N/A,,Scattered Clouds,0,2011-10-09 02:15:00
9:35 PM,67.1,55.9,67,30.12,10.0,ESE,3.5,-,N/A,,Mostly Cloudy,120,2011-10-09 02:35:00
9:55 PM,66.0,55.4,69,30.12,10.0,SSE,4.6,-,N/A,,Mostly Cloudy,160,2011-10-09 02:55:00
10:15 PM,65.7,55.6,70,30.12,10.0,SE,4.6,-,N/A,,Mostly Cloudy,130,2011-10-09 03:15:00
10:35 PM,65.5,55.8,71,30.13,10.0,SE,4.6,-,N/A,,Mostly Cloudy,140,2011-10-09 03:35:00
10:55 PM,66.2,56.3,70,30.13,10.0,SE,5.8,-,N/A,,Overcast,130,2011-10-09 03:55:00
11:15 PM,65.5,56.1,72,30.12,10.0,SE,6.9,-,N/A,,Scattered Clouds,130,2011-10-09 04:15:00
11:35 PM,64.8,56.3,74,30.13,10.0,SSE,5.8,-,N/A,,Clear,150,2011-10-09 04:35:00
11:55 PM,65.3,56.5,73,30.13,10.0,SSE,6.9,-,N/A,,Scattered Clouds,150,2011-10-09 04:55:00